DW1105 Weather Reports


Display with metric or nautical units.
time (UTC)temp
F
wind
direction
speed
MPH
gust
MPH
rain 1hr
in
rain 24hr
in
rain mn
in
humidity
%
barometer
mb
20260506083811 63 138 0.0 3.0 0.00 0.00 0.00 79 1008.7
20260506083328 63 178 1.0 3.0 0.00 0.00 0.00 79 1008.7
20260506082824 63 141 0.0 3.0 0.00 0.00 0.00 79 1008.7
20260506082325 63 95 1.0 3.0 0.00 0.00 0.00 78 1008.8
20260506081822 63 111 0.0 2.0 0.00 0.00 0.00 77 1008.7
20260506081316 63 184 0.0 1.0 0.00 0.00 0.00 77 1008.8
20260506080812 63 121 0.0 1.0 0.00 0.00 0.00 77 1008.8
20260506080329 64 120 0.0 2.0 0.00 0.00 0.00 77 1008.7
20260506073330 64 163 0.0 3.0 0.00 0.00 0.00 74 1008.6
20260506072827 64 134 0.0 3.0 0.00 0.00 0.00 74 1008.7
20260506072323 64 182 0.0 2.0 0.00 0.00 0.00 74 1008.7
20260506071818 65 148 0.0 2.0 0.00 0.00 0.00 73 1008.7
20260506071318 65 171 0.0 2.0 0.00 0.00 0.00 72 1008.7
20260506070814 65 164 1.0 2.0 0.00 0.00 0.00 72 1008.7
20260506070311 65 135 0.0 5.0 0.00 0.00 0.00 71 1008.8
20260506062325 66 140 1.0 3.0 0.00 0.00 0.00 69 1009.0
20260506061821 66 211 1.0 3.0 0.00 0.00 0.00 69 1008.9
20260506061316 66 175 1.0 3.0 0.00 0.00 0.00 69 1009.0
20260506060812 66 101 0.0 3.0 0.00 0.00 0.00 68 1009.0
20260506060312 66 100 1.0 3.0 0.00 0.00 0.00 68 1009.1
20260506051315 67 223 0.0 3.0 0.00 0.00 0.00 66 1009.5
20260506050811 67 344 0.0 3.0 0.00 0.00 0.00 65 1009.6
20260506050328 67 192 0.0 3.0 0.00 0.00 0.00 65 1009.6
20260506044821 67 171 0.0 3.0 0.00 0.00 0.00 65 1009.6
20260506044316 67 135 1.0 4.0 0.00 0.00 0.00 64 1009.7
20260506043812 67 214 0.0 3.0 0.00 0.00 0.00 64 1009.6
20260506043329 67 158 1.0 3.0 0.00 0.00 0.00 64 1009.6
20260506042823 67 134 0.0 3.0 0.00 0.00 0.00 64 1009.6
20260506042319 67 187 1.0 3.0 0.00 0.00 0.00 64 1009.7
20260506041815 67 150 1.0 3.0 0.00 0.00 0.00 63 1009.7
20260506041314 68 131 1.0 3.0 0.00 0.00 0.00 63 1009.6
20260506040830 68 156 0.0 3.0 0.00 0.00 0.00 63 1009.6
20260506040326 68 171 0.0 5.0 0.00 0.00 0.00 63 1009.6
20260506035822 68 140 1.0 5.0 0.00 0.00 0.00 63 1009.6
20260506035319 68 217 0.0 3.0 0.00 0.00 0.00 63 1009.6
20260506034816 68 171 0.0 5.0 0.00 0.00 0.00 63 1009.6
20260506034312 68 148 0.0 5.0 0.00 0.00 0.00 62 1009.7
20260506033811 68 159 1.0 5.0 0.00 0.00 0.00 62 1009.6
20260506033327 68 116 1.0 5.0 0.00 0.00 0.00 62 1009.6
20260506032821 68 165 0.0 4.0 0.00 0.00 0.00 62 1009.5
20260506032317 69 155 1.0 3.0 0.00 0.00 0.00 61 1009.5
20260506031814 69 203 1.0 3.0 0.00 0.00 0.00 61 1009.5
20260506031329 69 119 1.0 4.0 0.00 0.00 0.00 61 1009.5
20260506030825 69 103 1.0 3.0 0.00 0.00 0.00 60 1009.6
20260506030325 69 117 0.0 4.0 0.00 0.00 0.00 60 1009.5
20260506025820 69 92 0.0 4.0 0.00 0.00 0.00 59 1009.5
20260506025316 70 188 1.0 6.0 0.00 0.00 0.00 59 1009.4
20260506024812 70 197 1.0 4.0 0.00 0.00 0.00 58 1009.3
20260506024329 70 142 1.0 4.0 0.00 0.00 0.00 57 1009.3
20260506023825 70 178 1.0 6.0 0.00 0.00 0.00 57 1009.4
20260506023322 70 198 2.0 6.0 0.00 0.00 0.00 56 1009.2
20260506022821 70 146 1.0 4.0 0.00 0.00 0.00 55 1009.4
20260506022317 71 161 1.0 5.0 0.00 0.00 0.00 55 1009.2
20260506021812 71 91 1.0 4.0 0.00 0.00 0.00 54 1009.4
20260506021328 71 205 1.0 5.0 0.00 0.00 0.00 53 1009.2
20260506020825 71 207 2.0 5.0 0.00 0.00 0.00 53 1009.1
20260506020321 71 213 1.0 4.0 0.00 0.00 0.00 52 1009.1
20260506015817 72 250 1.0 4.0 0.00 0.00 0.00 50 1009.1
20260506015318 72 137 0.0 3.0 0.00 0.00 0.00 50 1009.1
20260506014814 72 212 0.0 4.0 0.00 0.00 0.00 49 1009.0
20260506014330 72 196 1.0 4.0 0.00 0.00 0.00 49 1009.0
20260506013827 72 163 1.0 5.0 0.00 0.00 0.00 49 1009.0
20260506013323 72 162 0.0 7.0 0.00 0.00 0.00 49 1009.1
20260506012818 72 163 2.0 7.0 0.00 0.00 0.00 48 1009.0
20260506012314 72 136 0.0 0.0 0.00 0.00 0.00 48 1008.8
20260506011815 73 139 0.0 2.0 0.00 0.00 0.00 48 1008.8
20260506011329 73 186 1.0 2.0 0.00 0.00 0.00 48 1008.7
20260506010825 73 132 0.0 3.0 0.00 0.00 0.00 47 1008.8
20260506010322 73 169 1.0 3.0 0.00 0.00 0.00 47 1008.7
20260506005819 73 115 0.0 5.0 0.00 0.00 0.00 47 1008.7
20260506005315 74 163 2.0 5.0 0.00 0.00 0.00 47 1008.5
20260506004812 74 214 0.0 4.0 0.00 0.00 0.00 46 1008.6
20260506004311 74 157 0.0 3.0 0.00 0.00 0.00 46 1008.4
20260506003827 74 220 1.0 3.0 0.00 0.00 0.00 45 1008.3
20260506003324 74 161 1.0 2.0 0.00 0.00 0.00 44 1008.3
20260506002819 74 156 0.0 3.0 0.00 0.00 0.00 43 1008.2
20260506002316 74 156 0.0 4.0 0.00 0.00 0.00 42 1008.3
20260506001813 74 167 0.0 4.0 0.00 0.00 0.00 42 1008.1
20260506001327 75 150 0.0 0.0 0.00 0.00 0.00 41 1008.0
20260506000823 75 188 0.0 1.0 0.00 0.00 0.00 40 1008.0
20260506000324 75 191 0.0 1.0 0.00 0.00 0.00 41 1007.9
20260505235820 75 153 0.0 1.0 0.00 0.00 0.00 40 1008.0
20260505235316 76 200 0.0 2.0 0.00 0.00 0.00 39 1008.0
20260505234813 76 131 0.0 3.0 0.00 0.00 0.00 39 1007.9
20260505234327 76 194 1.0 3.0 0.00 0.00 0.00 38 1007.9
20260505233824 77 175 1.0 5.0 0.00 0.00 0.00 38 1007.9
20260505233321 77 121 2.0 5.0 0.00 0.00 0.00 37 1007.9
20260505232822 77 178 0.0 3.0 0.00 0.00 0.00 38 1007.8
20260505232318 77 284 0.0 6.0 0.00 0.00 0.00 37 1007.8
20260505231814 77 159 1.0 6.0 0.00 0.00 0.00 37 1007.7
20260505231330 77 190 1.0 7.0 0.00 0.00 0.00 36 1007.7
20260505230826 77 194 2.0 7.0 0.00 0.00 0.00 36 1007.6
20260505230323 77 113 1.0 7.0 0.00 0.00 0.00 36 1007.6
20260505225818 78 98 2.0 5.0 0.00 0.00 0.00 35 1007.5
20260505225319 78 165 2.0 5.0 0.00 0.00 0.00 35 1007.5
20260505224816 78 132 1.0 6.0 0.00 0.00 0.00 36 1007.4
20260505224312 78 272 1.0 6.0 0.00 0.00 0.00 34 1007.4
20260505223828 78 355 1.0 6.0 0.00 0.00 0.00 35 1007.4
20260505223324 79 22 1.0 8.0 0.00 0.00 0.00 34 1007.3
20260505222820 79 192 3.0 8.0 0.00 0.00 0.00 34 1007.3
20260505222315 79 200 2.0 8.0 0.00 0.00 0.00 33 1007.3
20260505221816 79 171 2.0 8.0 0.00 0.00 0.00 34 1007.4
20260505221312 79 26 2.0 8.0 0.00 0.00 0.00 33 1007.4
20260505220828 79 194 1.0 7.0 0.00 0.00 0.00 34 1007.4
20260505220325 79 134 2.0 7.0 0.00 0.00 0.00 33 1007.3
20260505215821 79 62 0.0 4.0 0.00 0.00 0.00 33 1007.3
20260505215317 79 231 0.0 5.0 0.00 0.00 0.00 32 1007.3
20260505214813 79 333 2.0 6.0 0.00 0.00 0.00 32 1007.2
20260505214313 80 73 1.0 18.0 0.00 0.00 0.00 32 1007.2
20260505213830 80 5 4.0 18.0 0.00 0.00 0.00 32 1007.1
20260505213327 80 26 1.0 10.0 0.00 0.00 0.00 31 1007.1
20260505212821 80 205 4.0 10.0 0.00 0.00 0.00 30 1006.9
20260505212318 80 166 3.0 10.0 0.00 0.00 0.00 30 1007.0
20260505211814 80 207 1.0 6.0 0.00 0.00 0.00 30 1006.8
20260505211328 80 111 2.0 7.0 0.00 0.00 0.00 30 1006.8
20260505210829 81 283 2.0 5.0 0.00 0.00 0.00 31 1006.9
20260505210325 82 126 1.0 7.0 0.00 0.00 0.00 31 1006.9
20260505205821 83 298 1.0 7.0 0.00 0.00 0.00 32 1006.9
20260505205318 83 228 2.0 8.0 0.00 0.00 0.00 31 1006.7
20260505204814 83 215 1.0 10.0 0.00 0.00 0.00 32 1006.6
20260505204329 83 274 3.0 10.0 0.00 0.00 0.00 33 1006.8
20260505203826 83 146 1.0 12.0 0.00 0.00 0.00 32 1006.8
20260505203326 83 235 2.0 12.0 0.00 0.00 0.00 33 1006.8
20260505202822 83 233 1.0 10.0 0.00 0.00 0.00 33 1007.0
20260505202318 83 219 3.0 10.0 0.00 0.00 0.00 33 1007.0
20260505201814 83 209 2.0 9.0 0.00 0.00 0.00 33 1007.0
20260505201329 83 136 3.0 9.0 0.00 0.00 0.00 33 1007.0
20260505200826 83 233 2.0 6.0 0.00 0.00 0.00 33 1006.9
20260505200321 83 194 1.0 5.0 0.00 0.00 0.00 33 1007.0
20260505195821 83 166 2.0 5.0 0.00 0.00 0.00 36 1007.0
20260505195318 82 202 2.0 9.0 0.00 0.00 0.00 35 1006.9
20260505194814 82 49 3.0 9.0 0.00 0.00 0.00 34 1007.2
20260505194329 83 115 3.0 9.0 0.00 0.00 0.00 32 1007.2
20260505193825 83 129 3.0 8.0 0.00 0.00 0.00 34 1007.1
20260505193322 84 60 2.0 9.0 0.00 0.00 0.00 32 1007.3
20260505192818 84 228 2.0 9.0 0.00 0.00 0.00 34 1007.0
20260505192319 84 59 1.0 9.0 0.00 0.00 0.00 33 1007.3
20260505191815 84 38 2.0 9.0 0.00 0.00 0.00 33 1007.4
20260505191311 84 283 3.0 11.0 0.00 0.00 0.00 34 1007.7
20260505190827 84 293 4.0 11.0 0.00 0.00 0.00 32 1007.5
20260505190323 84 105 1.0 11.0 0.00 0.00 0.00 35 1007.4
20260505185820 84 247 1.0 16.0 0.00 0.00 0.00 35 1007.4
20260505185316 84 293 3.0 10.0 0.00 0.00 0.00 35 1007.5
20260505184815 84 171 0.0 14.0 0.00 0.00 0.00 38 1007.6
20260505184311 84 198 2.0 5.0 0.00 0.00 0.00 35 1007.7
20260505183827 83 226 3.0 7.0 0.00 0.00 0.00 36 1007.8
20260505183324 83 221 2.0 5.0 0.00 0.00 0.00 36 1007.9
20260505182820 84 175 1.0 5.0 0.00 0.00 0.00 37 1007.9
20260505182317 84 207 2.0 5.0 0.00 0.00 0.00 34 1008.1
20260505181813 84 199 1.0 5.0 0.00 0.00 0.00 37 1008.0
20260505181313 84 71 2.0 4.0 0.00 0.00 0.00 36 1008.0
20260505180830 83 172 1.0 8.0 0.00 0.00 0.00 38 1008.0
20260505180326 83 191 2.0 8.0 0.00 0.00 0.00 37 1008.0
20260505175823 83 160 1.0 7.0 0.00 0.00 0.00 38 1008.1
20260505175319 82 187 2.0 6.0 0.00 0.00 0.00 40 1008.1
20260505174814 82 147 2.0 5.0 0.00 0.00 0.00 39 1008.3
20260505174310 82 160 2.0 6.0 0.00 0.00 0.00 38 1008.3
20260505173811 82 186 2.0 6.0 0.00 0.00 0.00 39 1008.3
20260505173328 82 121 2.0 7.0 0.00 0.00 0.00 41 1008.5
20260505172824 82 74 1.0 9.0 0.00 0.00 0.00 41 1008.6
20260505172320 81 218 4.0 9.0 0.00 0.00 0.00 41 1008.5
20260505171816 82 154 1.0 5.0 0.00 0.00 0.00 42 1008.6
20260505171312 82 123 1.0 6.0 0.00 0.00 0.00 40 1008.7
20260505170829 81 130 1.0 6.0 0.00 0.00 0.00 42 1008.8
20260505170326 81 355 1.0 12.0 0.00 0.00 0.00 43 1008.8
20260505165826 81 40 3.0 12.0 0.00 0.00 0.00 41 1008.8
20260505165322 81 148 2.0 4.0 0.00 0.00 0.00 42 1008.9
20260505164819 81 118 1.0 4.0 0.00 0.00 0.00 42 1008.9
20260505164315 81 194 1.0 8.0 0.00 0.00 0.00 42 1009.1
20260505163811 81 180 1.0 8.0 0.00 0.00 0.00 44 1009.1
20260505163328 80 211 1.0 6.0 0.00 0.00 0.00 44 1009.1
20260505162823 79 122 2.0 6.0 0.00 0.00 0.00 45 1009.3
20260505162323 79 223 2.0 4.0 0.00 0.00 0.00 46 1009.4
20260505161820 78 39 1.0 8.0 0.00 0.00 0.00 47 1009.3
20260505161316 78 26 1.0 8.0 0.00 0.00 0.00 45 1009.5
20260505160813 78 149 2.0 5.0 0.00 0.00 0.00 45 1009.6
20260505160330 79 174 1.0 9.0 0.00 0.00 0.00 45 1009.6
20260505153311 76 105 1.0 5.0 0.00 0.00 0.00 50 1009.8
20260505152825 76 9 2.0 5.0 0.00 0.00 0.00 46 1009.9
20260505152321 77 116 1.0 4.0 0.00 0.00 0.00 47 1010.0
20260505151818 77 152 1.0 8.0 0.00 0.00 0.00 48 1010.0
20260505151317 76 137 1.0 9.0 0.00 0.00 0.00 48 1009.9
20260505150813 76 84 1.0 4.0 0.00 0.00 0.00 49 1010.1
20260505150330 76 346 1.0 4.0 0.00 0.00 0.00 50 1010.0
20260505140315 71 126 3.0 11.0 0.00 0.00 0.00 54 1010.6
20260505130312 66 46 0.0 5.0 0.00 0.00 0.00 60 1010.5
20260505124824 65 84 1.0 4.0 0.00 0.00 0.00 62 1010.4
20260505124319 65 150 1.0 4.0 0.00 0.00 0.00 62 1010.1
20260505123815 65 130 1.0 3.0 0.00 0.00 0.00 64 1010.1
20260505123312 64 301 0.0 1.0 0.00 0.00 0.00 66 1010.1
20260505122829 64 149 0.0 1.0 0.00 0.00 0.00 66 1010.1
20260505122325 64 144 0.0 1.0 0.00 0.00 0.00 67 1010.1
20260505121825 64 157 0.0 0.0 0.00 0.00 0.00 67 1010.3
20260505121320 64 156 0.0 1.0 0.00 0.00 0.00 67 1010.2
20260505120815 63 154 0.0 1.0 0.00 0.00 0.00 68 1010.3
20260505120312 62 112 0.0 2.0 0.00 0.00 0.00 71 1010.2
20260505115829 61 101 0.0 2.0 0.00 0.00 0.00 73 1010.3
20260505115325 61 263 0.0 0.0 0.00 0.00 0.00 75 1010.4
20260505114821 60 263 0.0 2.0 0.00 0.00 0.00 77 1010.4
20260505114321 59 263 0.0 2.0 0.00 0.00 0.00 78 1010.3
20260505113818 58 252 0.0 1.0 0.00 0.00 0.00 78 1010.2
20260505113314 58 184 0.0 0.0 0.00 0.00 0.00 78 1010.2
20260505112811 58 184 0.0 0.0 0.00 0.00 0.00 78 1010.3
20260505112328 58 184 0.0 0.0 0.00 0.00 0.00 78 1010.2
20260505111824 58 184 0.0 0.0 0.00 0.00 0.00 77 1010.1
20260505111319 59 184 0.0 0.0 0.00 0.00 0.00 78 1010.1
20260505110819 59 185 0.0 0.0 0.00 0.00 0.00 77 1010.0
20260505110316 59 185 0.0 2.0 0.00 0.00 0.00 76 1009.9
20260505101827 60 336 1.0 4.0 0.00 0.00 0.00 68 1010.3
20260505101322 60 274 1.0 3.0 0.00 0.00 0.00 69 1010.1
20260505100818 59 281 0.0 6.0 0.00 0.00 0.00 70 1010.1
20260505100315 58 277 3.0 6.0 0.00 0.00 0.00 70 1010.0
20260505095815 58 326 1.0 3.0 0.00 0.00 0.00 71 1010.0
20260505095312 58 287 2.0 3.0 0.00 0.00 0.00 72 1009.9
20260505094829 58 293 1.0 3.0 0.00 0.00 0.00 72 1009.9
20260505094323 57 303 1.0 2.0 0.00 0.00 0.00 75 1009.9
20260505093820 55 266 0.0 3.0 0.00 0.00 0.00 78 1009.7
20260505093316 54 126 0.0 3.0 0.00 0.00 0.00 80 1009.8
20260505092811 54 109 0.0 3.0 0.00 0.00 0.00 80 1009.6
20260505092312 54 217 0.0 3.0 0.00 0.00 0.00 80 1009.7
20260505091828 54 159 0.0 0.0 0.00 0.00 0.00 79 1009.5
20260505091323 54 159 0.0 0.0 0.00 0.00 0.00 78 1009.6
20260505090819 54 159 0.0 0.0 0.00 0.00 0.00 77 1009.6
20260505090316 54 159 0.0 1.0 0.00 0.00 0.00 76 1009.2
20260505085812 55 158 0.0 2.0 0.00 0.00 0.00 76 1009.3
20260505085329 55 161 0.0 4.0 0.00 0.00 0.00 75 1009.1
20260505084825 56 144 1.0 4.0 0.00 0.00 0.00 74 1009.1
20260505084324 55 153 0.0 1.0 0.00 0.00 0.00 75 1009.1